THOR ABLESTAR R/B, 1428

Orbit data source: Space-Track

THOR ABLESTAR R/B, 1428 is space debris in LEO originally from a launch on Thu, 24 Jun 1965 UTC launched from the Air Force Western Test Range (AFWTR). Debris objects in space refer to the collection of defunct objects orbiting the Earth. Examples of debris include non-operational satellites, rocket bodies, and fragments generated from explosions, collisions, or faulty payload assembly.

Loading next visibility...
Identifier
1428, 1965-048B
Orbit
LEO
Country
Flag of USUS
Related business
Manufacturer
Aerojet
Mission
Spacecraft
Bus & Motor
ABLESTAR, Unknown motor
Mass
~600 kg wet, 600 kg dry
Launch date (UTC)
1965-06-24 (60 years ago)
Launch vehicle
Unknown
Launch site
Air Force Western Test Range (AFWTR)
Object type
Payload
Rocket body
Debris
Shape & HBR
Unknown
Radar Cross Section
Large (>1 m²)

Expand to show TLE details & history
Last TLE update: 9 hours ago

TLE from 9 hours ago
0 THOR ABLESTAR R/B
1 01428U 65048B   25287.93511613  .00000062  00000-0  77883-4 0  9996
2 01428  89.8741 288.0937 0057199 170.0452 202.0517 13.52667158975496
Epoch: 2025-10-14T22:26Z
TLE epoch observation values (Epoch: 2025-10-14T22:26:34.033Z)
Latitude
11.80765°
Longitude
-72.23833°
Altitude
1,104.152 km
Speed
7.282 km/s
True Right ascension
19h 12m 28s
True Declination
11° 44' 32"
Sunlit
Object was in daylight at epoch
Visualization orbit readout
Latitude
Unknown
Longitude
Unknown
Altitude
Unknown
Speed
Unknown
Apparent Right ascension
Unknown
Apparent Declination
Unknown
Sunlit
N/A
Visualization observer readout
Local Sidereal Time
01:40:13
Azimuth
Unknown
Elevation
Unknown
Doppler factor
Unknown
Orbital elements
Apogee altitude
1,102.05 km
Perigee altitude
1,016.965 km
Semi-major axis
7,437.644 km
Eccentricity
0.00572
Inclination
89.8741°
RAAN
288.0937°
Arg. of periapsis
170.0452°
True anomaly
201.80724°
Mean anomaly
202.0517°
Eccentric anomaly
201.92931°
Mean motion
3.38369 °/min
Orbital period
106.39 mins
BSTAR
0.000077883
Loading maneuver chart data...
Computing Atmospheric mass density...

Documentation

Showing up to 5 results
|